Back to catalog

PSLV R/B

AliveSSO
NORAD 41878·ROCKET BODY·🇮🇳 India

Launched Dec 7, 2016 from Satish Dhawan Space Centre

Loading…

Next Passes (next 24 hours)

TLE

FreshSource: Space-Track

Epoch: Sep 14, 2026, 05:28 UTC

1 41878U 16074B   26257.22804371  .00000052  00000-0  41630-4 0  9990
2 41878  98.6273 344.0310 0001756 327.0392  33.0678 14.24179463507645

Track PSLV R/B in real time with AllMySat

Download on the App Store